iso_date,epoch_date,Year,Hour,Min,DOY,POS_DOY,Lat,Lon,BP,Ts,Ta,has_bp,has_ts,has_ta,BuoyID,Buoy_Type,Buoy_Owner,Logistics,Hemisphere
2021-06-07T15:00:00Z,1623078000,2021,15,0,158.625,158.625,-59.457,-27.312,991.4,29.98,-999.0,yes,yes,no,300234067172180,BD2GI,AOML,LAND_STATION,South
2021-06-07T16:00:02Z,1623081603,2021,16,0,158.6667,158.6667,-59.457,-27.312,991.3,29.74,-999.0,yes,yes,no,300234067172180,BD2GI,AOML,LAND_STATION,South
2021-06-07T16:59:57Z,1623085197,2021,17,0,158.7083,158.7083,-59.457,-27.312,991.0,29.02,-999.0,yes,yes,no,300234067172180,BD2GI,AOML,LAND_STATION,South
2021-06-07T18:00:00Z,1623088800,2021,18,0,158.75,158.75,-59.457,-27.312,991.2,27.98,-999.0,yes,yes,no,300234067172180,BD2GI,AOML,LAND_STATION,South
2021-06-07T19:00:02Z,1623092403,2021,19,0,158.7917,158.7917,-59.457,-27.312,991.3,27.55,-999.0,yes,yes,no,300234067172180,BD2GI,AOML,LAND_STATION,South
2021-06-07T19:59:57Z,1623095997,2021,20,0,158.8333,158.8333,-59.457,-27.312,991.5,27.09,-999.0,yes,yes,no,300234067172180,BD2GI,AOML,LAND_STATION,South
2021-06-07T21:00:00Z,1623099600,2021,21,0,158.875,158.875,-59.457,-27.312,991.6,26.89,-999.0,yes,yes,no,300234067172180,BD2GI,AOML,LAND_STATION,South
2021-06-07T22:00:02Z,1623103203,2021,22,0,158.9167,158.9167,-59.457,-27.312,991.9,26.92,-999.0,yes,yes,no,300234067172180,BD2GI,AOML,LAND_STATION,South
2021-06-07T22:59:57Z,1623106797,2021,23,0,158.9583,158.9583,-59.457,-27.312,992.1,26.78,-999.0,yes,yes,no,300234067172180,BD2GI,AOML,LAND_STATION,South
2021-06-08T00:00:00Z,1623110400,2021,0,0,159.0,159.0,-59.457,-27.312,992.6,27.08,-999.0,yes,yes,no,300234067172180,BD2GI,AOML,LAND_STATION,South
2021-06-08T01:00:02Z,1623114003,2021,1,0,159.0417,159.0417,-59.457,-27.312,993.0,27.38,-999.0,yes,yes,no,300234067172180,BD2GI,AOML,LAND_STATION,South
2021-06-08T01:59:57Z,1623117597,2021,2,0,159.0833,159.0833,-59.457,-27.312,993.2,27.9,-999.0,yes,yes,no,300234067172180,BD2GI,AOML,LAND_STATION,South
2021-06-08T03:00:00Z,1623121200,2021,3,0,159.125,159.125,-59.457,-27.312,993.6,27.67,-999.0,yes,yes,no,300234067172180,BD2GI,AOML,LAND_STATION,South
2021-06-08T04:00:02Z,1623124803,2021,4,0,159.1667,159.1667,-59.457,-27.312,994.8,27.63,-999.0,yes,yes,no,300234067172180,BD2GI,AOML,LAND_STATION,South
2021-06-08T04:59:57Z,1623128397,2021,5,0,159.2083,159.2083,-59.456,-27.312,995.5,27.62,-999.0,yes,yes,no,300234067172180,BD2GI,AOML,LAND_STATION,South
2021-06-08T06:00:00Z,1623132000,2021,6,0,159.25,159.25,-59.457,-27.312,995.7,27.98,-999.0,yes,yes,no,300234067172180,BD2GI,AOML,LAND_STATION,South
2021-06-08T07:00:02Z,1623135603,2021,7,0,159.2917,159.2917,-59.457,-27.312,996.6,28.27,-999.0,yes,yes,no,300234067172180,BD2GI,AOML,LAND_STATION,South
2021-06-08T07:59:57Z,1623139197,2021,8,0,159.3333,159.3333,-59.457,-27.312,998.1,28.03,-999.0,yes,yes,no,300234067172180,BD2GI,AOML,LAND_STATION,South
2021-06-08T09:00:00Z,1623142800,2021,9,0,159.375,159.375,-59.457,-27.312,999.2,27.5,-999.0,yes,yes,no,300234067172180,BD2GI,AOML,LAND_STATION,South
2021-06-08T10:00:02Z,1623146403,2021,10,0,159.4167,159.4167,-59.457,-27.312,1000.2,27.76,-999.0,yes,yes,no,300234067172180,BD2GI,AOML,LAND_STATION,South
2021-06-08T10:59:57Z,1623149997,2021,11,0,159.4583,159.4583,-59.457,-27.312,1001.3,27.79,-999.0,yes,yes,no,300234067172180,BD2GI,AOML,LAND_STATION,South
2021-06-08T12:00:00Z,1623153600,2021,12,0,159.5,159.5,-59.457,-27.312,1002.4,27.92,-999.0,yes,yes,no,300234067172180,BD2GI,AOML,LAND_STATION,South
2021-06-08T13:00:02Z,1623157203,2021,13,0,159.5417,159.5417,-59.457,-27.312,1003.1,28.08,-999.0,yes,yes,no,300234067172180,BD2GI,AOML,LAND_STATION,South
2021-06-08T13:59:57Z,1623160797,2021,14,0,159.5833,159.5833,-59.457,-27.312,1004.0,28.05,-999.0,yes,yes,no,300234067172180,BD2GI,AOML,LAND_STATION,South
2021-06-08T15:00:00Z,1623164400,2021,15,0,159.625,159.625,-59.457,-27.312,1004.7,27.91,-999.0,yes,yes,no,300234067172180,BD2GI,AOML,LAND_STATION,South
2021-06-08T16:00:02Z,1623168003,2021,16,0,159.6667,159.6667,-59.457,-27.312,1005.6,27.81,-999.0,yes,yes,no,300234067172180,BD2GI,AOML,LAND_STATION,South
2021-06-08T16:59:57Z,1623171597,2021,17,0,159.7083,159.7083,-59.457,-27.312,1006.8,27.66,-999.0,yes,yes,no,300234067172180,BD2GI,AOML,LAND_STATION,South
2021-06-08T18:00:00Z,1623175200,2021,18,0,159.75,159.75,-59.457,-27.312,1007.9,27.5,-999.0,yes,yes,no,300234067172180,BD2GI,AOML,LAND_STATION,South
2021-06-08T19:00:02Z,1623178803,2021,19,0,159.7917,159.7917,-59.457,-27.312,1008.5,27.55,-999.0,yes,yes,no,300234067172180,BD2GI,AOML,LAND_STATION,South
2021-06-08T19:59:57Z,1623182397,2021,20,0,159.8333,159.8333,-59.457,-27.312,1009.9,26.85,-999.0,yes,yes,no,300234067172180,BD2GI,AOML,LAND_STATION,South
2021-06-08T21:00:00Z,1623186000,2021,21,0,159.875,159.875,-59.457,-27.312,1011.3,26.57,-999.0,yes,yes,no,300234067172180,BD2GI,AOML,LAND_STATION,South
2021-06-08T22:00:02Z,1623189603,2021,22,0,159.9167,159.9167,-59.457,-27.312,1012.0,26.68,-999.0,yes,yes,no,300234067172180,BD2GI,AOML,LAND_STATION,South
2021-06-08T22:59:57Z,1623193197,2021,23,0,159.9583,159.9583,-59.457,-27.312,1012.9,26.62,-999.0,yes,yes,no,300234067172180,BD2GI,AOML,LAND_STATION,South
2021-06-09T00:00:00Z,1623196800,2021,0,0,160.0,160.0,-59.457,-27.312,1013.5,26.71,-999.0,yes,yes,no,300234067172180,BD2GI,AOML,LAND_STATION,South
2021-06-09T01:00:02Z,1623200403,2021,1,0,160.0417,160.0417,-59.457,-27.312,1014.4,26.68,-999.0,yes,yes,no,300234067172180,BD2GI,AOML,LAND_STATION,South
2021-06-09T01:59:57Z,1623203997,2021,2,0,160.0833,160.0833,-59.457,-27.312,1015.0,26.29,-999.0,yes,yes,no,300234067172180,BD2GI,AOML,LAND_STATION,South
2021-06-09T03:00:00Z,1623207600,2021,3,0,160.125,160.125,-59.457,-27.312,1015.3,26.28,-999.0,yes,yes,no,300234067172180,BD2GI,AOML,LAND_STATION,South
2021-06-09T04:00:02Z,1623211203,2021,4,0,160.1667,160.1667,-59.457,-27.312,1015.8,26.21,-999.0,yes,yes,no,300234067172180,BD2GI,AOML,LAND_STATION,South
2021-06-09T04:59:57Z,1623214797,2021,5,0,160.2083,160.2083,-59.457,-27.312,1016.5,26.17,-999.0,yes,yes,no,300234067172180,BD2GI,AOML,LAND_STATION,South
2021-06-09T06:00:00Z,1623218400,2021,6,0,160.25,160.25,-59.457,-27.312,1016.8,26.37,-999.0,yes,yes,no,300234067172180,BD2GI,AOML,LAND_STATION,South
2021-06-09T07:00:02Z,1623222003,2021,7,0,160.2917,160.2917,-59.457,-27.312,1017.3,26.53,-999.0,yes,yes,no,300234067172180,BD2GI,AOML,LAND_STATION,South
2021-06-09T07:59:57Z,1623225597,2021,8,0,160.3333,160.3333,-59.457,-27.312,1017.7,26.31,-999.0,yes,yes,no,300234067172180,BD2GI,AOML,LAND_STATION,South
2021-06-09T09:00:00Z,1623229200,2021,9,0,160.375,160.375,-59.457,-27.312,1017.9,26.32,-999.0,yes,yes,no,300234067172180,BD2GI,AOML,LAND_STATION,South
2021-06-09T10:00:02Z,1623232803,2021,10,0,160.4167,160.4167,-59.457,-27.312,1018.2,26.81,-999.0,yes,yes,no,300234067172180,BD2GI,AOML,LAND_STATION,South
2021-06-09T10:59:57Z,1623236397,2021,11,0,160.4583,160.4583,-59.457,-27.312,1018.2,27.28,-999.0,yes,yes,no,300234067172180,BD2GI,AOML,LAND_STATION,South
2021-06-09T12:00:00Z,1623240000,2021,12,0,160.5,160.5,-59.457,-27.312,1018.2,28.3,-999.0,yes,yes,no,300234067172180,BD2GI,AOML,LAND_STATION,South
2021-06-09T13:00:02Z,1623243603,2021,13,0,160.5417,160.5417,-59.457,-27.312,1018.3,29.08,-999.0,yes,yes,no,300234067172180,BD2GI,AOML,LAND_STATION,South
2021-06-09T13:59:57Z,1623247197,2021,14,0,160.5833,160.5833,-59.457,-27.312,1017.8,29.99,-999.0,yes,yes,no,300234067172180,BD2GI,AOML,LAND_STATION,South
2021-06-09T15:00:00Z,1623250800,2021,15,0,160.625,160.625,-59.457,-27.312,1017.0,29.42,-999.0,yes,yes,no,300234067172180,BD2GI,AOML,LAND_STATION,South
2021-06-09T16:00:02Z,1623254403,2021,16,0,160.6667,160.6667,-59.457,-27.312,1016.3,29.66,-999.0,yes,yes,no,300234067172180,BD2GI,AOML,LAND_STATION,South
2021-06-09T16:59:57Z,1623257997,2021,17,0,160.7083,160.7083,-59.457,-27.312,1015.6,31.27,-999.0,yes,yes,no,300234067172180,BD2GI,AOML,LAND_STATION,South
2021-06-09T18:00:00Z,1623261600,2021,18,0,160.75,160.75,-59.457,-27.312,1014.6,32.37,-999.0,yes,yes,no,300234067172180,BD2GI,AOML,LAND_STATION,South
2021-06-09T19:00:02Z,1623265203,2021,19,0,160.7917,160.7917,-59.457,-27.312,1013.6,33.02,-999.0,yes,yes,no,300234067172180,BD2GI,AOML,LAND_STATION,South
2021-06-09T19:59:57Z,1623268797,2021,20,0,160.8333,160.8333,-59.457,-27.312,1012.4,33.73,-999.0,yes,yes,no,300234067172180,BD2GI,AOML,LAND_STATION,South
2021-06-09T21:00:00Z,1623272400,2021,21,0,160.875,160.875,-59.457,-27.312,1011.6,34.46,-999.0,yes,yes,no,300234067172180,BD2GI,AOML,LAND_STATION,South
2021-06-09T22:00:02Z,1623276003,2021,22,0,160.9167,160.9167,-59.457,-27.312,1010.6,34.9,-999.0,yes,yes,no,300234067172180,BD2GI,AOML,LAND_STATION,South
2021-06-09T22:59:57Z,1623279597,2021,23,0,160.9583,160.9583,-59.457,-27.312,1009.4,35.45,-999.0,yes,yes,no,300234067172180,BD2GI,AOML,LAND_STATION,South
2021-06-10T00:00:00Z,1623283200,2021,0,0,161.0,161.0,-59.457,-27.312,1008.6,35.51,-999.0,yes,yes,no,300234067172180,BD2GI,AOML,LAND_STATION,South
2021-06-10T01:00:02Z,1623286803,2021,1,0,161.0417,161.0417,-59.457,-27.312,1007.6,-4.93,-999.0,yes,yes,no,300234067172180,BD2GI,AOML,LAND_STATION,South
2021-06-10T01:59:57Z,1623290397,2021,2,0,161.0833,161.0833,-59.457,-27.312,1006.7,-4.71,-999.0,yes,yes,no,300234067172180,BD2GI,AOML,LAND_STATION,South
2021-06-10T03:00:00Z,1623294000,2021,3,0,161.125,161.125,-59.457,-27.312,1006.5,-4.25,-999.0,yes,yes,no,300234067172180,BD2GI,AOML,LAND_STATION,South
2021-06-10T04:00:02Z,1623297603,2021,4,0,161.1667,161.1667,-59.457,-27.312,1006.0,-3.75,-999.0,yes,yes,no,300234067172180,BD2GI,AOML,LAND_STATION,South
2021-06-10T04:59:57Z,1623301197,2021,5,0,161.2083,161.2083,-59.457,-27.312,1005.2,-3.44,-999.0,yes,yes,no,300234067172180,BD2GI,AOML,LAND_STATION,South
2021-06-10T06:00:00Z,1623304800,2021,6,0,161.25,161.25,-59.457,-27.312,1004.4,-3.18,-999.0,yes,yes,no,300234067172180,BD2GI,AOML,LAND_STATION,South
2021-06-10T07:00:02Z,1623308403,2021,7,0,161.2917,161.2917,-59.457,-27.312,1003.4,-2.91,-999.0,yes,yes,no,300234067172180,BD2GI,AOML,LAND_STATION,South
2021-06-10T07:59:57Z,1623311997,2021,8,0,161.3333,161.3333,-59.457,-27.312,1003.2,-2.54,-999.0,yes,yes,no,300234067172180,BD2GI,AOML,LAND_STATION,South
2021-06-10T09:00:00Z,1623315600,2021,9,0,161.375,161.375,-59.457,-27.312,1002.7,-2.17,-999.0,yes,yes,no,300234067172180,BD2GI,AOML,LAND_STATION,South
2021-06-10T10:00:02Z,1623319203,2021,10,0,161.4167,161.4167,-59.457,-27.312,1002.2,-1.94,-999.0,yes,yes,no,300234067172180,BD2GI,AOML,LAND_STATION,South
2021-06-10T12:00:00Z,1623326400,2021,12,0,161.5,161.5,-59.457,-27.312,1002.3,-1.55,-999.0,yes,yes,no,300234067172180,BD2GI,AOML,LAND_STATION,South
2021-06-10T13:00:02Z,1623330003,2021,13,0,161.5417,161.5417,-59.456,-27.312,1002.7,-1.4,-999.0,yes,yes,no,300234067172180,BD2GI,AOML,LAND_STATION,South
2021-06-10T13:59:57Z,1623333597,2021,14,0,161.5833,161.5833,-59.457,-27.312,1002.7,-1.21,-999.0,yes,yes,no,300234067172180,BD2GI,AOML,LAND_STATION,South
2021-06-10T15:00:00Z,1623337200,2021,15,0,161.625,161.625,-59.457,-27.312,1002.8,-0.44,-999.0,yes,yes,no,300234067172180,BD2GI,AOML,LAND_STATION,South
2021-06-10T16:00:02Z,1623340803,2021,16,0,161.6667,161.6667,-59.457,-27.312,1002.6,-0.28,-999.0,yes,yes,no,300234067172180,BD2GI,AOML,LAND_STATION,South
2021-06-10T16:59:57Z,1623344397,2021,17,0,161.7083,161.7083,-59.457,-27.312,1002.5,-0.66,-999.0,yes,yes,no,300234067172180,BD2GI,AOML,LAND_STATION,South
2021-06-10T18:00:00Z,1623348000,2021,18,0,161.75,161.75,-59.457,-27.312,1002.5,-0.28,-999.0,yes,yes,no,300234067172180,BD2GI,AOML,LAND_STATION,South
2021-06-10T19:00:02Z,1623351603,2021,19,0,161.7917,161.7917,-59.457,-27.312,1002.4,-0.67,-999.0,yes,yes,no,300234067172180,BD2GI,AOML,LAND_STATION,South
2021-06-10T19:59:57Z,1623355197,2021,20,0,161.8333,161.8333,-59.456,-27.312,1002.2,-0.39,-999.0,yes,yes,no,300234067172180,BD2GI,AOML,LAND_STATION,South
2021-06-10T21:00:00Z,1623358800,2021,21,0,161.875,161.875,-59.457,-27.312,1001.2,0.0,-999.0,yes,yes,no,300234067172180,BD2GI,AOML,LAND_STATION,South
2021-06-10T22:00:02Z,1623362403,2021,22,0,161.9167,161.9167,-59.457,-27.312,1000.1,-0.94,-999.0,yes,yes,no,300234067172180,BD2GI,AOML,LAND_STATION,South
2021-06-10T22:59:57Z,1623365997,2021,23,0,161.9583,161.9583,-59.457,-27.312,999.0,-1.4,-999.0,yes,yes,no,300234067172180,BD2GI,AOML,LAND_STATION,South
2021-06-11T00:00:00Z,1623369600,2021,0,0,162.0,162.0,-59.457,-27.312,998.5,-1.52,-999.0,yes,yes,no,300234067172180,BD2GI,AOML,LAND_STATION,South
2021-06-11T01:00:02Z,1623373203,2021,1,0,162.0417,162.0417,-59.457,-27.312,997.9,-1.46,-999.0,yes,yes,no,300234067172180,BD2GI,AOML,LAND_STATION,South
2021-06-11T01:59:57Z,1623376797,2021,2,0,162.0833,162.0833,-59.457,-27.312,995.9,-1.23,-999.0,yes,yes,no,300234067172180,BD2GI,AOML,LAND_STATION,South
2021-06-11T03:00:00Z,1623380400,2021,3,0,162.125,162.125,-59.457,-27.312,993.2,-0.34,-999.0,yes,yes,no,300234067172180,BD2GI,AOML,LAND_STATION,South
2021-06-11T04:00:02Z,1623384003,2021,4,0,162.1667,162.1667,-59.457,-27.312,989.7,-0.81,-999.0,yes,yes,no,300234067172180,BD2GI,AOML,LAND_STATION,South
2021-06-11T04:59:57Z,1623387597,2021,5,0,162.2083,162.2083,-59.457,-27.312,987.3,-0.67,-999.0,yes,yes,no,300234067172180,BD2GI,AOML,LAND_STATION,South
2021-06-11T06:00:00Z,1623391200,2021,6,0,162.25,162.25,-59.456,-27.312,984.4,-0.64,-999.0,yes,yes,no,300234067172180,BD2GI,AOML,LAND_STATION,South
2021-06-11T07:00:02Z,1623394803,2021,7,0,162.2917,162.2917,-59.456,-27.312,984.6,-0.04,-999.0,yes,yes,no,300234067172180,BD2GI,AOML,LAND_STATION,South
2021-06-11T07:59:57Z,1623398397,2021,8,0,162.3333,162.3333,-59.457,-27.312,984.8,0.57,-999.0,yes,yes,no,300234067172180,BD2GI,AOML,LAND_STATION,South
2021-06-11T09:00:00Z,1623402000,2021,9,0,162.375,162.375,-59.457,-27.312,985.0,0.23,-999.0,yes,yes,no,300234067172180,BD2GI,AOML,LAND_STATION,South
2021-06-11T10:00:02Z,1623405603,2021,10,0,162.4167,162.4167,-59.457,-27.312,985.2,-0.05,-999.0,yes,yes,no,300234067172180,BD2GI,AOML,LAND_STATION,South
2021-06-11T12:00:00Z,1623412800,2021,12,0,162.5,162.5,-59.457,-27.312,985.7,-1.04,-999.0,yes,yes,no,300234067172180,BD2GI,AOML,LAND_STATION,South
2021-06-11T13:00:02Z,1623416403,2021,13,0,162.5417,162.5417,-59.457,-27.312,986.0,-0.92,-999.0,yes,yes,no,300234067172180,BD2GI,AOML,LAND_STATION,South
2021-06-11T13:59:57Z,1623419997,2021,14,0,162.5833,162.5833,-59.457,-27.312,985.8,-0.99,-999.0,yes,yes,no,300234067172180,BD2GI,AOML,LAND_STATION,South
2021-06-11T15:00:00Z,1623423600,2021,15,0,162.625,162.625,-59.457,-27.312,986.2,-1.1,-999.0,yes,yes,no,300234067172180,BD2GI,AOML,LAND_STATION,South
2021-06-11T16:00:02Z,1623427203,2021,16,0,162.6667,162.6667,-59.457,-27.312,986.1,-1.0,-999.0,yes,yes,no,300234067172180,BD2GI,AOML,LAND_STATION,South
2021-06-11T16:59:57Z,1623430797,2021,17,0,162.7083,162.7083,-59.457,-27.313,986.6,-1.85,-999.0,yes,yes,no,300234067172180,BD2GI,AOML,LAND_STATION,South
2021-06-11T18:00:00Z,1623434400,2021,18,0,162.75,162.75,-59.457,-27.312,987.3,-2.16,-999.0,yes,yes,no,300234067172180,BD2GI,AOML,LAND_STATION,South
2021-06-11T19:00:02Z,1623438003,2021,19,0,162.7917,162.7917,-59.457,-27.312,987.7,-1.68,-999.0,yes,yes,no,300234067172180,BD2GI,AOML,LAND_STATION,South
2021-06-11T19:59:57Z,1623441597,2021,20,0,162.8333,162.8333,-59.457,-27.312,988.6,-2.6,-999.0,yes,yes,no,300234067172180,BD2GI,AOML,LAND_STATION,South
2021-06-11T21:00:00Z,1623445200,2021,21,0,162.875,162.875,-59.457,-27.312,989.8,-3.46,-999.0,yes,yes,no,300234067172180,BD2GI,AOML,LAND_STATION,South
2021-06-11T22:00:02Z,1623448803,2021,22,0,162.9167,162.9167,-59.457,-27.312,990.8,-3.65,-999.0,yes,yes,no,300234067172180,BD2GI,AOML,LAND_STATION,South
2021-06-11T22:59:57Z,1623452397,2021,23,0,162.9583,162.9583,-59.457,-27.312,991.1,-3.32,-999.0,yes,yes,no,300234067172180,BD2GI,AOML,LAND_STATION,South
2021-06-12T00:00:00Z,1623456000,2021,0,0,163.0,163.0,-59.457,-27.312,991.6,-2.99,-999.0,yes,yes,no,300234067172180,BD2GI,AOML,LAND_STATION,South
2021-06-12T01:00:02Z,1623459603,2021,1,0,163.0417,163.0417,-59.457,-27.312,992.0,-2.52,-999.0,yes,yes,no,300234067172180,BD2GI,AOML,LAND_STATION,South
2021-06-12T01:59:57Z,1623463197,2021,2,0,163.0833,163.0833,-59.457,-27.312,992.8,-2.4,-999.0,yes,yes,no,300234067172180,BD2GI,AOML,LAND_STATION,South
2021-06-12T03:00:00Z,1623466800,2021,3,0,163.125,163.125,-59.457,-27.312,993.0,-2.58,-999.0,yes,yes,no,300234067172180,BD2GI,AOML,LAND_STATION,South
2021-06-12T04:00:02Z,1623470403,2021,4,0,163.1667,163.1667,-59.457,-27.312,993.4,-2.44,-999.0,yes,yes,no,300234067172180,BD2GI,AOML,LAND_STATION,South
2021-06-12T04:59:57Z,1623473997,2021,5,0,163.2083,163.2083,-59.457,-27.312,993.7,-2.25,-999.0,yes,yes,no,300234067172180,BD2GI,AOML,LAND_STATION,South
2021-06-12T06:00:00Z,1623477600,2021,6,0,163.25,163.25,-59.457,-27.312,993.9,-2.5,-999.0,yes,yes,no,300234067172180,BD2GI,AOML,LAND_STATION,South
2021-06-12T07:00:02Z,1623481203,2021,7,0,163.2917,163.2917,-59.457,-27.312,994.4,-2.52,-999.0,yes,yes,no,300234067172180,BD2GI,AOML,LAND_STATION,South
2021-06-12T07:59:57Z,1623484797,2021,8,0,163.3333,163.3333,-59.457,-27.312,995.0,-3.12,-999.0,yes,yes,no,300234067172180,BD2GI,AOML,LAND_STATION,South
2021-06-12T09:00:00Z,1623488400,2021,9,0,163.375,163.375,-59.457,-27.312,995.6,-3.1,-999.0,yes,yes,no,300234067172180,BD2GI,AOML,LAND_STATION,South
2021-06-12T10:00:02Z,1623492003,2021,10,0,163.4167,163.4167,-59.457,-27.312,996.1,-3.11,-999.0,yes,yes,no,300234067172180,BD2GI,AOML,LAND_STATION,South
2021-06-12T10:59:57Z,1623495597,2021,11,0,163.4583,163.4583,-59.457,-27.312,996.2,-3.13,-999.0,yes,yes,no,300234067172180,BD2GI,AOML,LAND_STATION,South
2021-06-12T12:00:00Z,1623499200,2021,12,0,163.5,163.5,-59.457,-27.312,996.3,-2.98,-999.0,yes,yes,no,300234067172180,BD2GI,AOML,LAND_STATION,South
2021-06-12T13:00:02Z,1623502803,2021,13,0,163.5417,163.5417,-59.457,-27.312,996.4,-3.08,-999.0,yes,yes,no,300234067172180,BD2GI,AOML,LAND_STATION,South
2021-06-12T13:59:57Z,1623506397,2021,14,0,163.5833,163.5833,-59.457,-27.312,996.2,-2.79,-999.0,yes,yes,no,300234067172180,BD2GI,AOML,LAND_STATION,South
2021-06-12T15:00:00Z,1623510000,2021,15,0,163.625,163.625,-59.457,-27.312,996.0,-2.8,-999.0,yes,yes,no,300234067172180,BD2GI,AOML,LAND_STATION,South
2021-06-12T16:00:02Z,1623513603,2021,16,0,163.6667,163.6667,-59.457,-27.312,996.0,-3.16,-999.0,yes,yes,no,300234067172180,BD2GI,AOML,LAND_STATION,South
2021-06-12T16:59:57Z,1623517197,2021,17,0,163.7083,163.7083,-59.457,-27.312,996.0,-3.53,-999.0,yes,yes,no,300234067172180,BD2GI,AOML,LAND_STATION,South
2021-06-12T18:00:00Z,1623520800,2021,18,0,163.75,163.75,-59.457,-27.312,996.0,-3.56,-999.0,yes,yes,no,300234067172180,BD2GI,AOML,LAND_STATION,South
2021-06-12T19:00:02Z,1623524403,2021,19,0,163.7917,163.7917,-59.457,-27.312,995.8,-3.83,-999.0,yes,yes,no,300234067172180,BD2GI,AOML,LAND_STATION,South
2021-06-12T19:59:57Z,1623527997,2021,20,0,163.8333,163.8333,-59.456,-27.312,995.8,-3.79,-999.0,yes,yes,no,300234067172180,BD2GI,AOML,LAND_STATION,South
2021-06-12T21:00:00Z,1623531600,2021,21,0,163.875,163.875,-59.457,-27.312,996.0,-3.71,-999.0,yes,yes,no,300234067172180,BD2GI,AOML,LAND_STATION,South
2021-06-12T22:00:02Z,1623535203,2021,22,0,163.9167,163.9167,-59.457,-27.312,995.6,-3.58,-999.0,yes,yes,no,300234067172180,BD2GI,AOML,LAND_STATION,South
2021-06-12T22:59:57Z,1623538797,2021,23,0,163.9583,163.9583,-59.457,-27.312,995.0,-4.03,-999.0,yes,yes,no,300234067172180,BD2GI,AOML,LAND_STATION,South
2021-06-13T00:00:00Z,1623542400,2021,0,0,164.0,164.0,-59.457,-27.312,994.5,-4.09,-999.0,yes,yes,no,300234067172180,BD2GI,AOML,LAND_STATION,South
2021-06-13T01:00:02Z,1623546003,2021,1,0,164.0417,164.0417,-59.457,-27.312,994.4,-4.05,-999.0,yes,yes,no,300234067172180,BD2GI,AOML,LAND_STATION,South
2021-06-13T01:59:57Z,1623549597,2021,2,0,164.0833,164.0833,-59.457,-27.312,994.1,-4.14,-999.0,yes,yes,no,300234067172180,BD2GI,AOML,LAND_STATION,South
2021-06-13T03:00:00Z,1623553200,2021,3,0,164.125,164.125,-59.457,-27.312,993.7,-4.04,-999.0,yes,yes,no,300234067172180,BD2GI,AOML,LAND_STATION,South
2021-06-13T04:00:02Z,1623556803,2021,4,0,164.1667,164.1667,-59.457,-27.312,993.4,-3.95,-999.0,yes,yes,no,300234067172180,BD2GI,AOML,LAND_STATION,South
2021-06-13T04:59:57Z,1623560397,2021,5,0,164.2083,164.2083,-59.457,-27.312,992.9,-3.93,-999.0,yes,yes,no,300234067172180,BD2GI,AOML,LAND_STATION,South
2021-06-13T06:00:00Z,1623564000,2021,6,0,164.25,164.25,-59.457,-27.312,992.2,35.9,-999.0,yes,yes,no,300234067172180,BD2GI,AOML,LAND_STATION,South
2021-06-13T07:00:02Z,1623567603,2021,7,0,164.2917,164.2917,-59.457,-27.312,991.8,-3.96,-999.0,yes,yes,no,300234067172180,BD2GI,AOML,LAND_STATION,South
2021-06-13T07:59:57Z,1623571197,2021,8,0,164.3333,164.3333,-59.457,-27.312,991.4,-4.37,-999.0,yes,yes,no,300234067172180,BD2GI,AOML,LAND_STATION,South
2021-06-13T09:00:00Z,1623574800,2021,9,0,164.375,164.375,-59.457,-27.312,991.2,-4.6,-999.0,yes,yes,no,300234067172180,BD2GI,AOML,LAND_STATION,South
2021-06-13T10:00:02Z,1623578403,2021,10,0,164.4167,164.4167,-59.457,-27.312,991.0,-4.6,-999.0,yes,yes,no,300234067172180,BD2GI,AOML,LAND_STATION,South
2021-06-13T10:59:57Z,1623581997,2021,11,0,164.4583,164.4583,-59.457,-27.312,990.5,-4.78,-999.0,yes,yes,no,300234067172180,BD2GI,AOML,LAND_STATION,South
2021-06-13T12:00:00Z,1623585600,2021,12,0,164.5,164.5,-59.457,-27.312,990.4,-4.55,-999.0,yes,yes,no,300234067172180,BD2GI,AOML,LAND_STATION,South
2021-06-13T13:00:02Z,1623589203,2021,13,0,164.5417,164.5417,-59.457,-27.312,990.2,-4.12,-999.0,yes,yes,no,300234067172180,BD2GI,AOML,LAND_STATION,South
2021-06-13T13:59:57Z,1623592797,2021,14,0,164.5833,164.5833,-59.457,-27.312,989.5,-3.53,-999.0,yes,yes,no,300234067172180,BD2GI,AOML,LAND_STATION,South
2021-06-13T15:00:00Z,1623596400,2021,15,0,164.625,164.625,-59.457,-27.312,988.8,-3.67,-999.0,yes,yes,no,300234067172180,BD2GI,AOML,LAND_STATION,South
2021-06-13T16:00:02Z,1623600003,2021,16,0,164.6667,164.6667,-59.457,-27.312,988.5,-4.36,-999.0,yes,yes,no,300234067172180,BD2GI,AOML,LAND_STATION,South
2021-06-13T16:59:57Z,1623603597,2021,17,0,164.7083,164.7083,-59.457,-27.312,988.1,-4.42,-999.0,yes,yes,no,300234067172180,BD2GI,AOML,LAND_STATION,South
2021-06-13T18:00:00Z,1623607200,2021,18,0,164.75,164.75,-59.457,-27.312,988.3,-4.76,-999.0,yes,yes,no,300234067172180,BD2GI,AOML,LAND_STATION,South
2021-06-13T19:00:02Z,1623610803,2021,19,0,164.7917,164.7917,-59.457,-27.312,988.5,-5.0,-999.0,yes,yes,no,300234067172180,BD2GI,AOML,LAND_STATION,South
2021-06-13T19:59:57Z,1623614397,2021,20,0,164.8333,164.8333,-59.457,-27.312,988.7,35.0,-999.0,yes,yes,no,300234067172180,BD2GI,AOML,LAND_STATION,South
2021-06-13T21:00:00Z,1623618000,2021,21,0,164.875,164.875,-59.457,-27.312,989.1,34.41,-999.0,yes,yes,no,300234067172180,BD2GI,AOML,LAND_STATION,South
2021-06-13T22:00:02Z,1623621603,2021,22,0,164.9167,164.9167,-59.457,-27.312,989.8,33.66,-999.0,yes,yes,no,300234067172180,BD2GI,AOML,LAND_STATION,South
2021-06-13T22:59:57Z,1623625197,2021,23,0,164.9583,164.9583,-59.457,-27.312,990.2,33.06,-999.0,yes,yes,no,300234067172180,BD2GI,AOML,LAND_STATION,South
2021-06-14T00:00:00Z,1623628800,2021,0,0,165.0,165.0,-59.457,-27.312,990.6,32.36,-999.0,yes,yes,no,300234067172180,BD2GI,AOML,LAND_STATION,South
2021-06-14T01:00:02Z,1623632403,2021,1,0,165.0417,165.0417,-59.457,-27.312,991.4,31.9,-999.0,yes,yes,no,300234067172180,BD2GI,AOML,LAND_STATION,South
2021-06-14T01:59:57Z,1623635997,2021,2,0,165.0833,165.0833,-59.457,-27.312,991.8,32.06,-999.0,yes,yes,no,300234067172180,BD2GI,AOML,LAND_STATION,South
2021-06-14T03:00:00Z,1623639600,2021,3,0,165.125,165.125,-59.456,-27.312,992.0,32.13,-999.0,yes,yes,no,300234067172180,BD2GI,AOML,LAND_STATION,South
2021-06-14T04:00:02Z,1623643203,2021,4,0,165.1667,165.1667,-59.457,-27.312,992.6,32.51,-999.0,yes,yes,no,300234067172180,BD2GI,AOML,LAND_STATION,South
2021-06-14T04:59:57Z,1623646797,2021,5,0,165.2083,165.2083,-59.457,-27.312,993.2,32.59,-999.0,yes,yes,no,300234067172180,BD2GI,AOML,LAND_STATION,South
2021-06-14T06:00:00Z,1623650400,2021,6,0,165.25,165.25,-59.457,-27.312,993.5,32.56,-999.0,yes,yes,no,300234067172180,BD2GI,AOML,LAND_STATION,South